Temp
14 13 13 13 13 13 13 14 14 13 13 13 14 13 13 14 13 13 12 12 12 12 11 10 10 10 10 9 8 8 7 6 5 5 5 5 4 3 2 2 2 2 1
14 14 14 14 13 13 13 14 14 14 14 14 14 14 14 14 14 13 12 13 12 12 11 11 11 10 10 10 9 8 7 6 6 5 5 4 3 3 3 2 1 1 1
15 14 14 14 14 14 14 14 14 14 14 14 15 15 14 14 14 13 13 13 13 12 11 11 11 10 10 9 9 8 8 7 6 6 5 4 3 3 3 2 2 2 1
15 15 15 14 14 14 14 14 15 15 15 15 15 15 15 15 14 14 13 13 13 12 12 11 11 10 10 9 9 9 8 7 6 6 5 4 4 3 2 2 2 1 1
15 15 15 15 15 15 15 15 15 15 15 15 15 16 15 15 15 14 13 13 13 12 12 11 11 10 10 10 9 9 9 7 7 6 5 4 4 3 2 2 2 2 1
15 15 15 15 15 15 15 16 16 16 16 16 16 16 16 15 15 14 13 13 13 13 12 11 11 10 10 10 10 9 9 8 7 7 6 5 4 3 2 2 3 1 1
15 14 15 15 15 15 15 16 16 16 16 16 16 16 16 15 15 14 14 14 13 13 12 12 11 11 10 10 10 9 9 8 7 7 6 6 5 4 3 2 2 2 1
15 14 14 14 15 15 15 16 16 16 16 16 16 16 16 16 15 14 14 14 13 13 13 12 11 11 10 10 10 9 9 9 8 6 6 6 5 5 4 4 2 2 1
15 15 14 14 14 15 15 16 16 16 16 16 16 16 16 15 15 14 14 14 14 13 13 12 11 11 10 10 10 9 9 8 8 6 5 5 5 4 3 3 2 2 2
16 16 15 14 14 15 15 16 15 16 16 16 16 16 16 15 15 14 14 14 14 13 13 13 12 11 11 10 9 9 9 9 9 8 6 5 5 4 4 4 3 2 3
16 16 16 15 14 14 15 16 15 15 16 16 17 16 16 15 15 14 14 14 14 13 13 13 12 12 11 10 10 9 9 9 9 8 6 5 5 4 5 4 3 2 2
16 16 16 16 15 14 15 16 15 16 16 16 17 16 16 15 15 14 14 14 14 14 13 13 12 12 11 11 10 9 9 9 9 7 7 6 5 5 5 4 3 2 2
16 16 16 16 15 14 15 16 16 16 17 17 17 16 16 16 15 14 15 15 15 14 13 13 13 12 11 11 10 10 9 9 8 8 7 7 6 6 5 5 4 2 2
16 16 16 16 15 15 14 15 16 16 17 17 17 17 16 16 15 15 15 15 15 14 14 13 13 12 12 11 10 10 9 9 8 8 8 8 7 7 6 6 5 3 2
17 16 16 15 15 15 14 15 16 16 16 17 17 16 16 16 15 15 15 15 15 15 14 13 13 12 12 11 10 10 9 9 9 8 8 8 7 7 6 5 4 3 2
17 16 16 15 15 15 14 16 16 17 17 17 17 16 16 16 15 15 16 16 15 14 14 13 13 12 12 12 11 10 10 9 9 8 8 8 7 7 7 5 5 4 3
16 15 15 15 14 14 14 15 16 16 16 16 17 17 17 16 15 16 17 16 15 14 13 13 13 12 12 11 11 10 10 9 8 8 8 8 8 7 7 7 5 5 3
14 13 12 13 13 14 14 15 15 16 16 16 16 16 16 16 15 15 15 15 15 14 13 13 12 12 12 12 11 10 10 10 9 8 8 8 8 7 7 7 6 6 4
13 11 11 11 11 12 12 12 14 15 15 16 15 15 16 15 15 15 15 15 15 14 13 13 12 12 11 11 11 11 10 10 9 8 8 8 8 8 7 7 7 6 5
11 11 12 11 11 11 12 11 11 13 16 16 15 15 15 15 14 14 15 15 14 13 12 11 11 11 11 11 11 11 10 10 9 9 8 8 8 8 7 7 7 7 6
10 10 12 11 12 11 11 12 13 12 13 15 15 14 14 14 14 14 14 14 14 13 11 9 10 11 10 11 11 11 10 10 10 9 9 8 8 8 8 7 7 7 7
9 9 11 11 10 11 11 11 11 13 12 15 15 14 14 14 13 14 14 13 12 10 10 9 9 10 10 9 10 10 10 10 10 9 9 8 8 8 8 7 7 7 6
8 8 9 10 10 10 11 11 9 11 12 13 14 14 14 14 14 13 12 12 11 11 10 9 9 9 11 8 9 10 10 10 10 10 9 9 8 8 8 7 7 7 7
8 8 9 10 10 8 7 7 9 9 10 11 12 13 13 13 13 12 11 10 9 10 10 9 9 9 9 10 9 9 10 10 9 10 9 9 8 8 8 8 7 7 7
7 8 7 9 9 7 7 8 10 10 10 10 10 11 12 12 12 10 9 9 10 9 9 9 9 9 8 9 9 9 9 9 9 9 9 9 8 8 8 8 7 7 7
6 6 6 6 6 7 7 8 9 10 10 11 11 10 11 11 11 10 10 10 9 10 9 9 10 8 8 8 8 8 9 10 9 9 9 8 9 8 8 7 7 7 7
Height
3188 3192 3197 3202 3205 3207 3209 3211 3213 3214 3215 3216 3217 3216 3215 3213 3209 3206 3203 3200 3195 3191 3187 3183 3178 3173 3167 3163 3158 3152 3148 3145 3141 3136 3129 3124 3119 3113 3108 3103 3099 3097 3094
3185 3189 3193 3198 3201 3204 3207 3209 3211 3212 3213 3215 3216 3215 3215 3212 3210 3206 3203 3199 3195 3191 3187 3182 3178 3173 3168 3163 3158 3153 3149 3144 3140 3134 3128 3123 3117 3112 3108 3103 3099 3095 3091
3182 3186 3190 3193 3197 3201 3204 3207 3209 3210 3212 3214 3214 3214 3214 3212 3209 3206 3203 3199 3195 3190 3186 3182 3178 3173 3168 3163 3158 3154 3150 3144 3140 3135 3129 3124 3118 3113 3107 3103 3098 3094 3091
3180 3182 3186 3190 3194 3198 3202 3204 3206 3208 3210 3212 3213 3213 3213 3212 3209 3205 3202 3199 3195 3191 3186 3182 3179 3174 3170 3166 3161 3156 3150 3145 3141 3136 3130 3125 3119 3112 3107 3103 3098 3095 3091
3178 3180 3183 3187 3191 3195 3198 3202 3204 3206 3209 3210 3213 3213 3212 3212 3209 3205 3202 3199 3195 3191 3187 3183 3179 3175 3172 3167 3163 3158 3153 3148 3142 3137 3132 3127 3121 3114 3108 3104 3099 3094 3091
3177 3178 3181 3184 3188 3192 3196 3199 3201 3204 3207 3209 3212 3212 3211 3210 3208 3205 3202 3199 3196 3192 3188 3184 3180 3176 3173 3169 3165 3161 3156 3150 3145 3139 3133 3128 3120 3114 3110 3107 3101 3095 3093
3175 3178 3180 3182 3185 3189 3193 3196 3198 3202 3205 3207 3210 3210 3210 3209 3207 3204 3202 3199 3196 3192 3188 3185 3182 3178 3175 3171 3168 3163 3159 3154 3148 3142 3136 3130 3122 3117 3112 3109 3102 3098 3093
3172 3176 3179 3181 3184 3187 3190 3193 3195 3200 3203 3206 3208 3209 3209 3208 3206 3204 3202 3199 3196 3193 3190 3186 3182 3179 3176 3173 3170 3166 3162 3157 3150 3145 3138 3132 3127 3122 3117 3113 3104 3099 3094
3170 3174 3177 3180 3182 3184 3188 3191 3194 3199 3201 3204 3206 3207 3208 3206 3205 3203 3200 3198 3197 3194 3191 3187 3183 3180 3177 3174 3172 3168 3164 3160 3155 3148 3143 3137 3132 3126 3120 3117 3111 3104 3099
3168 3171 3175 3179 3181 3183 3186 3189 3193 3196 3199 3202 3204 3206 3205 3205 3204 3201 3199 3198 3196 3194 3192 3188 3185 3182 3178 3176 3174 3171 3166 3163 3158 3153 3148 3142 3135 3131 3127 3121 3114 3110 3105
3164 3168 3172 3176 3179 3181 3183 3186 3191 3194 3197 3200 3203 3205 3204 3204 3202 3200 3198 3197 3195 3194 3192 3189 3185 3183 3181 3177 3175 3173 3169 3167 3160 3155 3151 3146 3141 3137 3130 3125 3120 3115 3109
3160 3164 3169 3173 3176 3178 3180 3184 3188 3191 3195 3198 3201 3203 3203 3202 3200 3198 3197 3196 3196 3194 3191 3189 3186 3183 3182 3179 3176 3174 3172 3169 3164 3160 3156 3152 3147 3141 3134 3129 3124 3118 3113
3156 3160 3165 3169 3173 3175 3178 3181 3184 3188 3192 3195 3199 3201 3201 3200 3198 3196 3196 3195 3194 3193 3192 3189 3187 3184 3181 3180 3178 3176 3174 3171 3167 3165 3159 3156 3152 3147 3139 3135 3129 3123 3119
3151 3155 3159 3164 3168 3171 3174 3177 3180 3185 3189 3194 3197 3198 3198 3198 3196 3195 3194 3193 3192 3192 3191 3190 3188 3185 3182 3181 3180 3178 3176 3173 3170 3169 3165 3160 3157 3151 3144 3138 3133 3129 3126
3145 3149 3153 3158 3162 3166 3169 3172 3176 3182 3186 3190 3193 3195 3196 3196 3195 3194 3193 3191 3190 3189 3190 3190 3188 3185 3184 3182 3180 3179 3178 3174 3173 3171 3169 3164 3159 3156 3151 3145 3142 3138 3133
3140 3144 3148 3151 3156 3161 3164 3168 3173 3178 3183 3186 3189 3192 3192 3193 3193 3191 3190 3188 3187 3187 3186 3188 3188 3186 3184 3183 3181 3180 3180 3177 3175 3174 3171 3169 3164 3161 3158 3153 3150 3145 3139
3134 3138 3142 3147 3152 3156 3160 3163 3169 3174 3178 3181 3184 3186 3188 3190 3190 3189 3189 3187 3186 3186 3186 3184 3186 3186 3185 3182 3182 3180 3180 3180 3176 3176 3175 3173 3170 3166 3164 3160 3156 3152 3146
3130 3135 3139 3144 3148 3151 3154 3159 3164 3168 3172 3176 3179 3182 3184 3186 3187 3187 3187 3186 3185 3184 3184 3183 3182 3183 3183 3183 3181 3181 3179 3181 3179 3176 3177 3176 3174 3171 3169 3167 3163 3160 3156
3128 3128 3133 3141 3146 3149 3151 3155 3159 3162 3167 3171 3174 3177 3180 3182 3183 3183 3183 3183 3182 3181 3180 3180 3180 3180 3180 3181 3182 3181 3179 3179 3181 3177 3177 3178 3178 3175 3173 3171 3170 3167 3164
3126 3126 3128 3131 3136 3142 3146 3148 3154 3156 3161 3166 3170 3173 3176 3178 3179 3179 3179 3179 3179 3178 3176 3175 3175 3176 3178 3180 3181 3181 3179 3179 3179 3180 3177 3178 3180 3178 3176 3175 3174 3173 3171
3124 3129 3130 3133 3136 3137 3144 3147 3150 3154 3156 3160 3165 3168 3171 3172 3175 3175 3175 3174 3174 3172 3172 3172 3170 3172 3176 3177 3179 3180 3179 3179 3178 3179 3178 3177 3179 3180 3179 3178 3177 3177 3176
3122 3126 3128 3130 3133 3137 3140 3146 3146 3148 3152 3155 3161 3163 3166 3168 3169 3169 3169 3169 3168 3168 3166 3169 3166 3166 3169 3173 3175 3177 3177 3178 3178 3178 3178 3177 3178 3180 3180 3180 3179 3178 3179
3116 3114 3123 3126 3126 3126 3136 3141 3148 3151 3150 3151 3154 3158 3160 3162 3163 3164 3164 3163 3163 3162 3164 3163 3165 3163 3163 3165 3169 3173 3174 3175 3177 3177 3176 3176 3177 3179 3180 3180 3180 3180 3181
3110 3112 3116 3124 3125 3128 3134 3141 3144 3148 3147 3148 3149 3151 3154 3157 3158 3157 3157 3157 3158 3157 3156 3159 3159 3160 3157 3160 3162 3166 3169 3170 3173 3174 3174 3174 3174 3177 3178 3180 3181 3180 3180
3106 3109 3113 3115 3118 3127 3133 3136 3138 3141 3143 3144 3145 3147 3148 3150 3152 3150 3151 3152 3152 3152 3152 3153 3153 3153 3152 3155 3157 3159 3162 3165 3167 3169 3171 3172 3171 3172 3175 3177 3179 3180 3179
3103 3107 3108 3110 3112 3117 3124 3130 3133 3135 3137 3139 3140 3141 3142 3143 3145 3146 3145 3146 3145 3145 3146 3146 3146 3147 3146 3148 3151 3154 3155 3158 3160 3163 3165 3167 3168 3169 3170 3171 3173 3176 3178
Wind_Speed
24 23 21 18 15 14 13 10 11 12 13 12 12 14 16 18 19 21 18 21 21 22 23 23 24 22 21 21 23 21 20 17 17 21 25 26 27 24 18 17 17 8 10
21 23 22 20 19 17 14 12 13 13 14 12 12 13 15 17 20 21 17 20 21 23 23 23 23 20 21 23 22 21 22 21 23 26 29 27 25 20 20 16 14 11 10
12 21 21 22 21 18 15 14 15 15 14 11 11 11 13 16 18 19 20 19 21 23 24 24 22 20 21 22 21 24 26 27 29 27 26 25 22 19 19 15 11 11 13
12 14 20 21 20 18 17 17 17 17 13 12 10 12 13 14 17 20 19 18 20 22 23 23 21 19 19 19 20 24 27 28 27 24 21 20 22 18 15 13 12 14 14
7 11 15 18 20 19 20 19 19 18 14 15 9 10 12 13 16 21 18 18 19 20 22 22 19 19 19 18 21 23 26 27 26 25 21 24 23 22 12 13 14 15 14
6 5 12 16 21 21 22 21 22 19 17 15 8 9 12 14 17 19 17 15 18 19 21 21 18 17 17 17 20 22 25 27 26 24 25 27 27 23 17 17 20 14 15
11 8 7 12 18 21 23 23 24 20 19 14 8 9 11 15 17 18 18 15 17 18 20 20 17 16 16 16 18 21 25 26 24 23 27 29 27 25 21 19 23 18 17
17 15 12 9 12 18 22 25 26 21 20 15 9 10 10 14 17 19 17 13 14 17 19 18 17 16 15 14 16 20 24 27 27 24 28 29 27 25 25 27 31 26 23
21 15 17 14 13 15 21 25 26 22 21 15 11 10 10 13 16 19 15 11 14 16 18 19 17 15 14 14 16 18 22 25 25 25 25 25 23 27 26 25 24 27 27
21 14 15 16 16 15 19 25 22 22 21 16 13 9 12 13 15 17 14 9 11 13 16 18 18 15 13 13 14 16 20 22 25 26 24 25 26 23 23 26 29 26 27
26 23 18 17 14 16 19 24 22 23 22 17 14 9 13 13 15 16 11 7 8 11 13 15 16 15 14 12 13 14 18 19 25 27 26 26 23 20 22 24 24 26 31
26 24 22 18 18 16 20 23 23 25 23 20 12 11 12 13 16 14 9 7 9 10 9 12 13 14 13 12 11 12 15 18 23 23 23 23 23 20 24 25 24 29 30
27 26 25 22 20 21 20 23 25 28 24 21 12 11 13 14 13 8 7 6 8 9 10 11 12 13 11 10 10 11 12 15 21 21 22 24 23 21 23 22 26 29 27
29 28 27 26 25 23 21 24 27 26 26 18 13 11 13 10 4 1 3 4 6 8 11 10 12 12 12 10 9 9 9 13 17 18 20 21 23 24 26 27 29 29 26
30 27 24 25 29 27 22 26 28 26 24 17 14 12 12 11 8 4 4 3 5 7 9 10 9 10 11 10 7 7 8 10 12 16 19 20 22 23 25 24 24 23 25
31 29 25 25 30 28 24 28 26 26 23 18 16 14 13 9 7 3 0 4 6 8 6 8 10 9 9 10 7 5 7 6 10 13 15 17 19 21 23 22 23 25 25
28 23 21 25 27 26 26 28 26 27 21 20 19 17 14 13 13 5 6 11 10 9 10 7 9 10 8 8 7 5 4 5 6 9 11 14 16 19 21 22 23 25 25
24 21 18 21 22 26 27 26 26 26 24 22 21 19 15 16 10 8 9 9 12 12 13 13 11 11 9 9 8 5 2 4 2 6 7 10 12 15 18 20 21 22 22
27 27 24 19 21 9 15 19 21 28 26 24 22 19 20 16 12 8 9 13 15 16 17 19 17 14 13 10 9 6 5 3 6 2 4 5 8 11 14 16 18 20 20
22 24 22 29 30 34 30 32 26 29 26 24 21 19 18 16 12 12 15 16 20 21 20 21 21 19 17 13 11 7 7 6 6 5 3 2 3 5 9 12 14 17 18
20 25 28 26 29 21 26 25 23 21 19 22 21 20 17 15 16 17 20 21 23 22 19 19 24 23 19 15 13 10 9 7 8 8 5 4 2 1 3 6 10 13 15
28 27 32 28 23 20 18 18 16 21 23 25 24 22 20 19 20 21 21 24 22 21 21 20 21 22 17 15 15 13 11 9 9 9 10 7 6 5 3 2 4 8 11
31 23 18 27 27 29 31 22 17 16 15 17 21 18 17 19 21 21 19 17 16 15 26 24 19 24 22 15 15 14 14 11 9 10 11 9 9 10 8 6 5 3 6
30 29 33 29 29 14 21 16 13 12 12 13 17 20 19 22 23 17 13 12 14 16 16 24 23 23 24 14 17 16 17 14 13 12 13 11 11 13 13 12 10 8 6
25 28 37 43 41 25 22 23 20 18 15 14 14 17 20 24 26 18 17 16 16 18 19 22 25 25 23 21 17 19 20 18 16 14 15 15 13 14 16 15 15 14 12
24 23 22 26 31 39 35 29 27 27 28 28 26 21 20 24 27 25 20 19 18 20 22 22 22 24 27 27 20 21 24 23 20 18 18 18 18 15 17 18 18 18 17
Wind_Direction
217 217 219 225 225 229 232 233 245 261 279 297 314 329 339 347 350 357 357 350 346 349 354 356 354 0 2 2 3 5 5 4 356 350 350 354 354 344 347 340 339 339 4
218 219 218 219 222 224 227 231 241 255 267 290 311 328 341 347 355 353 353 348 350 353 357 355 0 6 4 8 9 15 11 360 3 5 359 356 357 355 349 350 350 2 10
221 220 216 215 217 216 217 223 234 245 260 282 304 323 341 348 352 351 348 356 353 355 357 356 4 8 11 13 9 15 9 2 15 11 0 3 0 3 4 6 13 30 25
233 222 222 214 213 211 210 215 226 239 254 271 298 321 336 349 350 348 353 359 354 355 354 357 7 11 18 18 15 18 13 7 13 12 7 11 8 2 11 19 28 21 12
254 225 222 216 212 207 205 209 220 233 248 263 295 313 326 345 347 353 353 359 354 355 354 358 8 14 22 23 21 21 15 11 12 15 13 14 11 14 28 28 28 40 29
232 215 216 214 211 205 204 207 220 227 241 257 284 306 327 337 347 354 351 359 355 356 356 359 9 14 26 27 24 24 19 16 14 18 20 15 17 22 32 18 18 34 24
219 212 223 216 213 208 206 207 217 224 237 252 271 296 328 330 339 353 354 356 358 357 358 0 5 13 27 32 28 26 23 20 23 28 26 22 23 30 39 25 24 26 17
232 220 224 227 213 210 207 206 216 222 233 247 264 291 320 324 332 347 353 351 357 358 1 360 4 13 23 36 33 29 27 24 24 26 26 26 30 41 41 27 24 35 39
235 229 228 232 223 211 209 208 217 222 232 244 257 283 300 316 333 342 350 346 0 1 3 359 2 10 16 29 36 31 31 30 27 32 31 31 37 43 38 34 34 45 38
231 229 228 229 224 221 213 213 219 225 233 242 255 284 294 318 332 333 347 346 358 3 6 3 358 6 12 24 34 32 33 29 31 33 39 38 36 42 39 45 48 46 42
233 227 219 217 218 225 218 216 221 227 234 242 251 277 297 314 325 330 341 337 352 3 7 5 3 4 3 19 30 31 33 27 37 32 31 37 33 38 47 46 43 39 35
229 227 226 224 227 235 226 217 223 227 231 240 250 271 294 311 321 329 328 336 343 354 6 2 3 7 2 5 26 29 33 27 39 35 34 35 34 39 52 46 40 42 34
230 230 229 229 230 235 237 223 223 226 230 237 249 272 293 316 325 329 342 347 337 347 348 2 360 2 5 4 6 28 31 32 39 36 34 32 38 38 54 51 45 41 36
238 239 235 230 228 233 236 225 224 226 231 235 244 267 289 302 301 347 337 338 348 348 340 349 359 355 359 3 359 11 30 35 41 35 36 35 32 36 42 48 47 41 32
240 242 237 226 225 227 235 227 224 222 230 230 239 258 279 276 270 304 9 4 330 330 325 330 342 348 356 352 359 354 16 37 41 37 34 37 37 35 41 48 51 45 41
238 237 235 222 219 222 233 225 224 224 225 229 238 248 253 241 247 220 7 277 270 275 282 307 314 327 347 345 342 348 351 31 43 42 35 37 42 41 43 50 53 50 51
224 217 214 217 215 224 232 225 219 223 220 227 240 248 245 237 239 223 273 278 291 296 280 275 289 300 320 327 326 327 339 339 53 49 38 38 41 48 45 45 52 51 56
197 192 187 212 222 235 227 216 215 217 219 224 238 246 228 223 232 260 281 309 316 309 295 280 267 273 284 303 309 312 308 309 328 67 48 34 43 51 53 49 50 56 59
195 180 172 180 199 202 216 221 218 222 219 224 236 236 217 240 249 254 292 304 305 298 291 286 273 268 268 278 297 310 296 284 279 119 74 37 36 51 60 59 54 58 62
195 193 192 184 190 183 191 213 197 218 219 224 221 217 232 240 249 263 278 287 295 297 292 282 278 270 268 272 285 294 291 286 251 255 144 103 10 45 64 71 69 62 65
192 208 200 195 213 212 221 228 223 221 234 219 213 224 230 244 259 269 279 287 288 293 290 295 290 283 275 274 271 281 283 284 265 245 216 190 207 287 73 78 81 80 73
205 218 221 209 193 194 208 222 222 221 222 214 215 226 234 246 254 266 276 280 289 279 287 291 283 300 276 264 263 263 270 274 270 256 240 212 223 226 234 147 101 93 90
223 224 220 212 206 209 209 218 235 232 232 227 228 240 257 257 258 263 270 273 277 271 264 292 277 284 300 249 250 252 257 266 267 264 246 234 228 233 232 225 195 161 114
221 222 215 219 213 205 195 229 231 244 257 254 255 261 265 266 263 251 264 272 279 289 282 264 283 283 290 267 230 237 244 247 257 262 254 236 227 237 238 233 231 211 203
215 213 225 226 212 224 243 244 243 251 263 255 261 269 280 272 265 263 253 262 272 277 278 280 284 287 280 283 256 223 234 239 245 249 256 257 237 228 235 240 236 238 223
224 214 203 206 210 216 228 249 257 258 264 270 277 289 295 287 274 268 263 260 264 270 274 282 283 282 272 275 270 232 233 235 229 235 242 250 254 240 238 234 238 238 238